Retour au catalogue

PSLV R/B

ActifSSO
NORAD 41791·ROCKET BODY·🇮🇳 India

Lancé Sep 26, 2016 depuis Satish Dhawan Space Centre

Loading…

Prochains Passages (prochaines 24 heures)

TLE

FraisSource: Space-Track

Époque: Sep 14, 2026, 06:31 UTC

1 41791U 16059J   26257.27194164  .00000296  00000-0  65001-4 0  9992
2 41791  97.8369 264.1032 0040682   5.4123 354.7512 14.63726385531707

Suivez PSLV R/B en temps réel avec AllMySat

Download on the App Store